| time (UTC) | temp C | wind direction | speed KPH | gust KPH | rain 1hr cm | rain 24hr cm | rain mn cm | humidity % | barometer mb |
| 20260902185202 | 34 | 206 | 16.1 | 27.4 | 0.00 | 0.00 | 0.00 | 35 | 1017.7 |
| 20260902184656 | 34 | 209 | 20.9 | 29.0 | 0.00 | 0.00 | 0.00 | 35 | 1017.8 |
| 20260902184151 | 34 | 174 | 14.5 | 29.0 | 0.00 | 0.00 | 0.00 | 35 | 1018.1 |
| 20260902183647 | 35 | 187 | 24.1 | 32.2 | 0.00 | 0.00 | 0.00 | 35 | 1018.1 |
| 20260902183143 | 33 | 200 | 19.3 | 20.9 | 0.00 | 0.00 | 0.00 | 35 | 1018.4 |
| 20260902182639 | 33 | 237 | 12.9 | 30.6 | 0.00 | 0.00 | 0.00 | 36 | 1018.6 |
| 20260902182135 | 33 | 211 | 17.7 | 29.0 | 0.00 | 0.00 | 0.00 | 36 | 1018.7 |
| 20260902181631 | 33 | 202 | 14.5 | 32.2 | 0.00 | 0.00 | 0.00 | 36 | 1018.5 |
| 20260902181131 | 34 | 172 | 16.1 | 30.6 | 0.00 | 0.00 | 0.00 | 36 | 1018.7 |
| 20260902180630 | 33 | 211 | 16.1 | 20.9 | 0.00 | 0.00 | 0.00 | 37 | 1018.8 |
| 20260902180126 | 32 | 191 | 20.9 | 27.4 | 0.00 | 0.00 | 0.00 | 38 | 1019.0 |
| 20260902175626 | 32 | 203 | 16.1 | 25.7 | 0.00 | 0.00 | 0.00 | 37 | 1018.9 |
| 20260902175122 | 32 | 203 | 19.3 | 40.2 | 0.00 | 0.00 | 0.00 | 37 | 1018.9 |
| 20260902174618 | 32 | 198 | 22.5 | 25.7 | 0.00 | 0.00 | 0.00 | 38 | 1018.9 |
| 20260902174114 | 33 | 185 | 27.4 | 33.8 | 0.00 | 0.00 | 0.00 | 36 | 1018.9 |
| 20260902173608 | 34 | 208 | 22.5 | 32.2 | 0.00 | 0.00 | 0.00 | 36 | 1018.9 |
| 20260902173103 | 33 | 181 | 22.5 | 32.2 | 0.00 | 0.00 | 0.00 | 36 | 1019.1 |
| 20260902172557 | 33 | 202 | 33.8 | 35.4 | 0.00 | 0.00 | 0.00 | 37 | 1019.1 |
| 20260902172051 | 33 | 211 | 24.1 | 25.7 | 0.00 | 0.00 | 0.00 | 38 | 1019.2 |
| 20260902171547 | 33 | 193 | 17.7 | 32.2 | 0.00 | 0.00 | 0.00 | 38 | 1019.2 |
| 20260902171043 | 33 | 212 | 20.9 | 27.4 | 0.00 | 0.00 | 0.00 | 37 | 1019.4 |
| 20260902170537 | 32 | 214 | 24.1 | 32.2 | 0.00 | 0.00 | 0.00 | 39 | 1019.4 |
| 20260902170033 | 31 | 202 | 19.3 | 27.4 | 0.00 | 0.00 | 0.00 | 40 | 1019.4 |
| 20260902165527 | 32 | 218 | 17.7 | 32.2 | 0.00 | 0.00 | 0.00 | 40 | 1019.5 |
| 20260902165021 | 31 | 206 | 24.1 | 32.2 | 0.00 | 0.00 | 0.00 | 40 | 1019.5 |
| 20260902164516 | 32 | 194 | 16.1 | 25.7 | 0.00 | 0.00 | 0.00 | 39 | 1019.5 |
| 20260902164015 | 32 | 211 | 16.1 | 27.4 | 0.00 | 0.00 | 0.00 | 40 | 1019.6 |
| 20260902163511 | 31 | 214 | 19.3 | 29.0 | 0.00 | 0.00 | 0.00 | 42 | 1019.6 |
| 20260902163009 | 31 | 209 | 20.9 | 27.4 | 0.00 | 0.00 | 0.00 | 42 | 1019.6 |
| 20260902162504 | 30 | 208 | 14.5 | 27.4 | 0.00 | 0.00 | 0.00 | 43 | 1019.7 |
| 20260902161959 | 30 | 211 | 22.5 | 29.0 | 0.00 | 0.00 | 0.00 | 43 | 1019.5 |
| 20260902161454 | 30 | 210 | 19.3 | 27.4 | 0.00 | 0.00 | 0.00 | 44 | 1019.6 |
| 20260902160950 | 30 | 231 | 14.5 | 29.0 | 0.00 | 0.00 | 0.00 | 44 | 1019.5 |
| 20260902160445 | 30 | 217 | 19.3 | 32.2 | 0.00 | 0.00 | 0.00 | 45 | 1019.4 |
| 20260902155943 | 30 | 209 | 24.1 | 30.6 | 0.00 | 0.00 | 0.00 | 43 | 1019.5 |
| 20260902155439 | 30 | 214 | 20.9 | 27.4 | 0.00 | 0.00 | 0.00 | 44 | 1019.6 |
| 20260902154932 | 29 | 219 | 20.9 | 32.2 | 0.00 | 0.00 | 0.00 | 45 | 1019.6 |
| 20260902154428 | 30 | 200 | 20.9 | 27.4 | 0.00 | 0.00 | 0.00 | 45 | 1019.5 |
| 20260902153928 | 28 | 212 | 24.1 | 37.0 | 0.00 | 0.00 | 0.00 | 45 | 1019.4 |
| 20260902153426 | 29 | 208 | 19.3 | 37.0 | 0.00 | 0.00 | 0.00 | 45 | 1019.4 |
| 20260902152922 | 28 | 215 | 17.7 | 27.4 | 0.00 | 0.00 | 0.00 | 45 | 1019.5 |
| 20260902152418 | 28 | 203 | 17.7 | 24.1 | 0.00 | 0.00 | 0.00 | 44 | 1019.4 |
| 20260902151913 | 28 | 197 | 16.1 | 22.5 | 0.00 | 0.00 | 0.00 | 45 | 1019.1 |
| 20260902151409 | 27 | 200 | 17.7 | 24.1 | 0.00 | 0.00 | 0.00 | 46 | 1019.2 |
| 20260902150903 | 27 | 211 | 16.1 | 25.7 | 0.00 | 0.00 | 0.00 | 47 | 1019.6 |
| 20260902150359 | 27 | 213 | 12.9 | 24.1 | 0.00 | 0.00 | 0.00 | 46 | 1019.1 |
| 20260902145858 | 26 | 216 | 9.7 | 29.0 | 0.00 | 0.00 | 0.00 | 48 | 1019.1 |
| 20260902145354 | 26 | 207 | 16.1 | 22.5 | 0.00 | 0.00 | 0.00 | 49 | 1019.2 |
| 20260902144848 | 25 | 175 | 16.1 | 20.9 | 0.00 | 0.00 | 0.00 | 50 | 1019.5 |
| 20260902144345 | 25 | 180 | 9.7 | 17.7 | 0.00 | 0.00 | 0.00 | 51 | 1019.4 |
| 20260902143839 | 25 | 197 | 19.3 | 24.1 | 0.00 | 0.00 | 0.00 | 51 | 1019.5 |
| 20260902143334 | 25 | 196 | 12.9 | 20.9 | 0.00 | 0.00 | 0.00 | 52 | 1019.4 |
| 20260902142830 | 24 | 194 | 17.7 | 20.9 | 0.00 | 0.00 | 0.00 | 52 | 1019.5 |
| 20260902142326 | 24 | 211 | 17.7 | 24.1 | 0.00 | 0.00 | 0.00 | 52 | 1019.2 |
| 20260902141820 | 24 | 201 | 17.7 | 20.9 | 0.00 | 0.00 | 0.00 | 52 | 1019.2 |
| 20260902141316 | 23 | 209 | 17.7 | 25.7 | 0.00 | 0.00 | 0.00 | 53 | 1019.5 |
| 20260902140816 | 24 | 201 | 17.7 | 20.9 | 0.00 | 0.00 | 0.00 | 52 | 1019.1 |
| 20260902140311 | 24 | 192 | 17.7 | 20.9 | 0.00 | 0.00 | 0.00 | 52 | 1019.4 |
| 20260902135810 | 23 | 188 | 16.1 | 20.9 | 0.00 | 0.00 | 0.00 | 54 | 1019.2 |
| 20260902135307 | 23 | 201 | 17.7 | 20.9 | 0.00 | 0.00 | 0.00 | 54 | 1019.1 |
| 20260902134805 | 23 | 196 | 11.3 | 17.7 | 0.00 | 0.00 | 0.00 | 55 | 1019.2 |
| 20260902134301 | 23 | 186 | 11.3 | 20.9 | 0.00 | 0.00 | 0.00 | 55 | 1019.0 |
| 20260902133756 | 23 | 195 | 12.9 | 22.5 | 0.00 | 0.00 | 0.00 | 54 | 1018.8 |
| 20260902133255 | 23 | 193 | 8.0 | 20.9 | 0.00 | 0.00 | 0.00 | 55 | 1019.0 |
| 20260902132750 | 23 | 197 | 16.1 | 20.9 | 0.00 | 0.00 | 0.00 | 55 | 1018.9 |
| 20260902132246 | 23 | 204 | 12.9 | 19.3 | 0.00 | 0.00 | 0.00 | 55 | 1018.9 |
| 20260902131742 | 22 | 204 | 11.3 | 20.9 | 0.00 | 0.00 | 0.00 | 56 | 1018.8 |
| 20260902131238 | 22 | 201 | 14.5 | 17.7 | 0.00 | 0.00 | 0.00 | 57 | 1018.8 |
| 20260902130737 | 22 | 201 | 9.7 | 19.3 | 0.00 | 0.00 | 0.00 | 57 | 1018.8 |
| 20260902130233 | 22 | 210 | 12.9 | 17.7 | 0.00 | 0.00 | 0.00 | 58 | 1018.5 |
| 20260902125728 | 21 | 193 | 11.3 | 16.1 | 0.00 | 0.00 | 0.00 | 59 | 1018.6 |
| 20260902125224 | 21 | 180 | 12.9 | 17.7 | 0.00 | 0.00 | 0.00 | 59 | 1018.5 |
| 20260902124721 | 21 | 193 | 11.3 | 17.7 | 0.00 | 0.00 | 0.00 | 60 | 1018.4 |
| 20260902124216 | 21 | 200 | 9.7 | 19.3 | 0.00 | 0.00 | 0.00 | 60 | 1018.4 |
| 20260902123711 | 21 | 196 | 12.9 | 20.9 | 0.00 | 0.00 | 0.00 | 60 | 1018.4 |
| 20260902123206 | 21 | 198 | 11.3 | 19.3 | 0.00 | 0.00 | 0.00 | 60 | 1018.4 |
| 20260902122700 | 21 | 208 | 11.3 | 19.3 | 0.00 | 0.00 | 0.00 | 60 | 1018.1 |
| 20260902122156 | 20 | 188 | 9.7 | 16.1 | 0.00 | 0.00 | 0.00 | 61 | 1018.0 |
| 20260902121650 | 20 | 196 | 12.9 | 17.7 | 0.00 | 0.00 | 0.00 | 61 | 1017.9 |
| 20260902121145 | 20 | 187 | 12.9 | 14.5 | 0.00 | 0.00 | 0.00 | 61 | 1018.0 |
| 20260902120641 | 21 | 195 | 9.7 | 14.5 | 0.00 | 0.00 | 0.00 | 61 | 1017.9 |
| 20260902120138 | 21 | 191 | 11.3 | 16.1 | 0.00 | 0.00 | 0.00 | 61 | 1017.9 |
| 20260902115637 | 21 | 196 | 11.3 | 17.7 | 0.00 | 0.00 | 0.00 | 61 | 1018.0 |
| 20260902115134 | 20 | 186 | 11.3 | 14.5 | 0.00 | 0.00 | 0.00 | 61 | 1017.8 |
| 20260902114630 | 20 | 184 | 11.3 | 14.5 | 0.00 | 0.00 | 0.00 | 61 | 1017.7 |
| 20260902114129 | 20 | 180 | 11.3 | 14.5 | 0.00 | 0.00 | 0.00 | 61 | 1017.6 |
| 20260902113625 | 20 | 180 | 8.0 | 11.3 | 0.00 | 0.00 | 0.00 | 61 | 1017.7 |
| 20260902113120 | 21 | 178 | 9.7 | 12.9 | 0.00 | 0.00 | 0.00 | 61 | 1017.6 |
| 20260902112615 | 21 | 180 | 11.3 | 14.5 | 0.00 | 0.00 | 0.00 | 60 | 1017.7 |
| 20260902112112 | 21 | 172 | 9.7 | 14.5 | 0.00 | 0.00 | 0.00 | 60 | 1017.8 |
| 20260902111607 | 21 | 179 | 9.7 | 16.1 | 0.00 | 0.00 | 0.00 | 60 | 1017.8 |
| 20260902111103 | 21 | 184 | 11.3 | 16.1 | 0.00 | 0.00 | 0.00 | 60 | 1017.8 |
| 20260902110559 | 20 | 163 | 11.3 | 14.5 | 0.00 | 0.00 | 0.00 | 61 | 1018.0 |
| 20260902110054 | 20 | 153 | 8.0 | 16.1 | 0.00 | 0.00 | 0.00 | 61 | 1017.9 |
| 20260902105549 | 20 | 174 | 8.0 | 9.7 | 0.00 | 0.00 | 0.00 | 62 | 1017.8 |
| 20260902105048 | 20 | 175 | 6.4 | 9.7 | 0.00 | 0.00 | 0.00 | 61 | 1018.0 |
| 20260902104544 | 21 | 203 | 6.4 | 11.3 | 0.00 | 0.00 | 0.00 | 59 | 1018.0 |
| 20260902104039 | 21 | 200 | 11.3 | 12.9 | 0.00 | 0.00 | 0.00 | 58 | 1017.9 |
| 20260902103535 | 21 | 181 | 6.4 | 9.7 | 0.00 | 0.00 | 0.00 | 59 | 1017.6 |
| 20260902103030 | 21 | 199 | 8.0 | 11.3 | 0.00 | 0.00 | 0.00 | 59 | 1018.0 |
| 20260902102526 | 21 | 200 | 12.9 | 14.5 | 0.00 | 0.00 | 0.00 | 58 | 1018.0 |
| 20260902102023 | 21 | 212 | 12.9 | 17.7 | 0.00 | 0.00 | 0.00 | 57 | 1017.9 |
| 20260902101518 | 21 | 191 | 12.9 | 17.7 | 0.00 | 0.00 | 0.00 | 57 | 1017.9 |
| 20260902101016 | 21 | 185 | 12.9 | 16.1 | 0.00 | 0.00 | 0.00 | 57 | 1017.9 |
| 20260902100511 | 21 | 180 | 14.5 | 14.5 | 0.00 | 0.00 | 0.00 | 57 | 1017.8 |
| 20260902100006 | 21 | 166 | 11.3 | 16.1 | 0.00 | 0.00 | 0.00 | 57 | 1018.1 |
| 20260902095500 | 22 | 185 | 14.5 | 16.1 | 0.00 | 0.00 | 0.00 | 56 | 1017.9 |
| 20260902094959 | 22 | 202 | 11.3 | 19.3 | 0.00 | 0.00 | 0.00 | 56 | 1018.0 |
| 20260902094455 | 22 | 200 | 14.5 | 20.9 | 0.00 | 0.00 | 0.00 | 56 | 1018.0 |
| 20260902093950 | 22 | 194 | 14.5 | 20.9 | 0.00 | 0.00 | 0.00 | 56 | 1018.0 |
| 20260902093445 | 22 | 197 | 16.1 | 22.5 | 0.00 | 0.00 | 0.00 | 55 | 1017.8 |
| 20260902092944 | 22 | 201 | 12.9 | 17.7 | 0.00 | 0.00 | 0.00 | 55 | 1017.9 |
| 20260902092440 | 22 | 193 | 11.3 | 19.3 | 0.00 | 0.00 | 0.00 | 55 | 1018.0 |
| 20260902091940 | 22 | 192 | 12.9 | 17.7 | 0.00 | 0.00 | 0.00 | 55 | 1018.1 |
| 20260902091435 | 22 | 183 | 8.0 | 17.7 | 0.00 | 0.00 | 0.00 | 55 | 1017.9 |
| 20260902090931 | 22 | 201 | 8.0 | 19.3 | 0.00 | 0.00 | 0.00 | 55 | 1017.9 |
| 20260902090431 | 22 | 191 | 11.3 | 19.3 | 0.00 | 0.00 | 0.00 | 54 | 1018.1 |
| 20260902085930 | 22 | 189 | 12.9 | 16.1 | 0.00 | 0.00 | 0.00 | 55 | 1018.0 |
| 20260902085426 | 22 | 180 | 9.7 | 17.7 | 0.00 | 0.00 | 0.00 | 54 | 1018.4 |
| 20260902084921 | 22 | 172 | 11.3 | 17.7 | 0.00 | 0.00 | 0.00 | 54 | 1018.0 |
| 20260902084417 | 22 | 183 | 9.7 | 16.1 | 0.00 | 0.00 | 0.00 | 54 | 1018.1 |
| 20260902083913 | 22 | 186 | 14.5 | 16.1 | 0.00 | 0.00 | 0.00 | 54 | 1018.2 |
| 20260902083412 | 22 | 183 | 9.7 | 16.1 | 0.00 | 0.00 | 0.00 | 54 | 1018.2 |
| 20260902082908 | 22 | 185 | 12.9 | 16.1 | 0.00 | 0.00 | 0.00 | 53 | 1018.4 |
| 20260902082403 | 23 | 176 | 11.3 | 19.3 | 0.00 | 0.00 | 0.00 | 52 | 1018.4 |
| 20260902081900 | 23 | 188 | 11.3 | 20.9 | 0.00 | 0.00 | 0.00 | 52 | 1018.2 |
| 20260902081355 | 23 | 180 | 11.3 | 16.1 | 0.00 | 0.00 | 0.00 | 52 | 1018.4 |
| 20260902080851 | 23 | 184 | 11.3 | 16.1 | 0.00 | 0.00 | 0.00 | 52 | 1018.4 |
| 20260902080347 | 23 | 167 | 16.1 | 17.7 | 0.00 | 0.00 | 0.00 | 51 | 1018.4 |
| 20260902075846 | 23 | 185 | 14.5 | 17.7 | 0.00 | 0.00 | 0.00 | 51 | 1018.2 |
| 20260902075342 | 23 | 169 | 11.3 | 19.3 | 0.00 | 0.00 | 0.00 | 51 | 1018.2 |
| 20260902074838 | 23 | 163 | 8.0 | 14.5 | 0.00 | 0.00 | 0.00 | 51 | 1018.6 |
| 20260902074333 | 23 | 165 | 12.9 | 16.1 | 0.00 | 0.00 | 0.00 | 51 | 1018.4 |
| 20260902073828 | 23 | 161 | 8.0 | 14.5 | 0.00 | 0.00 | 0.00 | 52 | 1018.4 |
| 20260902073324 | 23 | 168 | 9.7 | 16.1 | 0.00 | 0.00 | 0.00 | 51 | 1018.5 |
| 20260902072820 | 23 | 168 | 12.9 | 14.5 | 0.00 | 0.00 | 0.00 | 51 | 1018.5 |
| 20260902072315 | 23 | 162 | 11.3 | 17.7 | 0.00 | 0.00 | 0.00 | 50 | 1018.4 |
| 20260902071812 | 23 | 166 | 12.9 | 17.7 | 0.00 | 0.00 | 0.00 | 50 | 1018.7 |
| 20260902071306 | 23 | 168 | 11.3 | 16.1 | 0.00 | 0.00 | 0.00 | 50 | 1018.6 |
| 20260902070803 | 24 | 166 | 11.3 | 19.3 | 0.00 | 0.00 | 0.00 | 49 | 1018.2 |
| 20260902070302 | 24 | 168 | 9.7 | 19.3 | 0.00 | 0.00 | 0.00 | 49 | 1018.2 |
| 20260902065801 | 24 | 173 | 12.9 | 20.9 | 0.00 | 0.00 | 0.00 | 49 | 1018.0 |
| 20260902065256 | 24 | 165 | 9.7 | 17.7 | 0.00 | 0.00 | 0.00 | 49 | 1018.2 |
| 20260902064752 | 24 | 161 | 14.5 | 19.3 | 0.00 | 0.00 | 0.00 | 49 | 1018.1 |
| 20260902064248 | 23 | 158 | 12.9 | 19.3 | 0.00 | 0.00 | 0.00 | 50 | 1018.5 |
| 20260902063743 | 24 | 162 | 11.3 | 19.3 | 0.00 | 0.00 | 0.00 | 49 | 1018.2 |
| 20260902063238 | 23 | 156 | 12.9 | 20.9 | 0.00 | 0.00 | 0.00 | 50 | 1018.1 |
| 20260902062737 | 23 | 155 | 17.7 | 22.5 | 0.00 | 0.00 | 0.00 | 49 | 1018.0 |
| 20260902062232 | 24 | 155 | 16.1 | 19.3 | 0.00 | 0.00 | 0.00 | 49 | 1018.4 |
| 20260902061731 | 24 | 155 | 14.5 | 20.9 | 0.00 | 0.00 | 0.00 | 49 | 1018.4 |
| 20260902061227 | 24 | 159 | 19.3 | 22.5 | 0.00 | 0.00 | 0.00 | 48 | 1018.2 |
| 20260902060724 | 25 | 158 | 14.5 | 24.1 | 0.00 | 0.00 | 0.00 | 48 | 1018.4 |
| 20260902060219 | 25 | 154 | 16.1 | 24.1 | 0.00 | 0.00 | 0.00 | 48 | 1018.1 |
| 20260902055715 | 25 | 157 | 16.1 | 24.1 | 0.00 | 0.00 | 0.00 | 48 | 1018.1 |
| 20260902055211 | 25 | 161 | 16.1 | 24.1 | 0.00 | 0.00 | 0.00 | 48 | 1018.2 |
| 20260902054706 | 25 | 157 | 20.9 | 22.5 | 0.00 | 0.00 | 0.00 | 48 | 1018.4 |
| 20260902054202 | 25 | 158 | 14.5 | 24.1 | 0.00 | 0.00 | 0.00 | 48 | 1018.2 |
| 20260902053657 | 25 | 156 | 17.7 | 24.1 | 0.00 | 0.00 | 0.00 | 48 | 1018.4 |
| 20260902053156 | 25 | 159 | 16.1 | 20.9 | 0.00 | 0.00 | 0.00 | 48 | 1018.4 |
| 20260902052656 | 25 | 156 | 14.5 | 20.9 | 0.00 | 0.00 | 0.00 | 48 | 1018.6 |
| 20260902052151 | 25 | 162 | 19.3 | 19.3 | 0.00 | 0.00 | 0.00 | 48 | 1018.2 |
| 20260902051650 | 25 | 156 | 12.9 | 24.1 | 0.00 | 0.00 | 0.00 | 47 | 1018.2 |
| 20260902051145 | 25 | 164 | 14.5 | 22.5 | 0.00 | 0.00 | 0.00 | 47 | 1018.1 |
| 20260902050639 | 25 | 161 | 12.9 | 20.9 | 0.00 | 0.00 | 0.00 | 47 | 1018.5 |
| 20260902050135 | 25 | 153 | 17.7 | 20.9 | 0.00 | 0.00 | 0.00 | 47 | 1018.2 |
| 20260902045629 | 25 | 155 | 14.5 | 20.9 | 0.00 | 0.00 | 0.00 | 47 | 1018.5 |
| 20260902045126 | 25 | 157 | 16.1 | 20.9 | 0.00 | 0.00 | 0.00 | 46 | 1018.6 |
| 20260902044625 | 26 | 146 | 12.9 | 22.5 | 0.00 | 0.00 | 0.00 | 46 | 1018.4 |
| 20260902044122 | 26 | 154 | 12.9 | 22.5 | 0.00 | 0.00 | 0.00 | 45 | 1018.4 |
| 20260902043617 | 26 | 156 | 19.3 | 22.5 | 0.00 | 0.00 | 0.00 | 45 | 1018.2 |
| 20260902043112 | 26 | 154 | 17.7 | 20.9 | 0.00 | 0.00 | 0.00 | 45 | 1018.1 |
| 20260902042611 | 26 | 155 | 16.1 | 24.1 | 0.00 | 0.00 | 0.00 | 45 | 1018.2 |
| 20260902042107 | 26 | 146 | 14.5 | 24.1 | 0.00 | 0.00 | 0.00 | 45 | 1018.5 |
| 20260902041606 | 26 | 143 | 17.7 | 24.1 | 0.00 | 0.00 | 0.00 | 44 | 1018.4 |
| 20260902041101 | 26 | 150 | 11.3 | 24.1 | 0.00 | 0.00 | 0.00 | 45 | 1018.4 |
| 20260902040555 | 26 | 147 | 16.1 | 25.7 | 0.00 | 0.00 | 0.00 | 44 | 1018.2 |
| 20260902040050 | 26 | 154 | 12.9 | 20.9 | 0.00 | 0.00 | 0.00 | 44 | 1018.5 |
| 20260902035543 | 27 | 152 | 12.9 | 19.3 | 0.00 | 0.00 | 0.00 | 43 | 1018.2 |
| 20260902035039 | 27 | 158 | 14.5 | 22.5 | 0.00 | 0.00 | 0.00 | 43 | 1018.2 |
| 20260902034538 | 27 | 159 | 17.7 | 20.9 | 0.00 | 0.00 | 0.00 | 43 | 1018.2 |
| 20260902034037 | 27 | 164 | 12.9 | 22.5 | 0.00 | 0.00 | 0.00 | 43 | 1018.1 |
| 20260902033537 | 27 | 151 | 14.5 | 19.3 | 0.00 | 0.00 | 0.00 | 42 | 1018.2 |
| 20260902033031 | 27 | 156 | 20.9 | 24.1 | 0.00 | 0.00 | 0.00 | 42 | 1018.0 |
| 20260902032525 | 27 | 156 | 14.5 | 19.3 | 0.00 | 0.00 | 0.00 | 42 | 1018.1 |
| 20260902032020 | 27 | 149 | 16.1 | 20.9 | 0.00 | 0.00 | 0.00 | 42 | 1018.0 |
| 20260902031514 | 27 | 161 | 14.5 | 20.9 | 0.00 | 0.00 | 0.00 | 41 | 1018.1 |
| 20260902031010 | 27 | 151 | 14.5 | 22.5 | 0.00 | 0.00 | 0.00 | 41 | 1018.1 |
| 20260902030505 | 27 | 155 | 14.5 | 19.3 | 0.00 | 0.00 | 0.00 | 41 | 1017.8 |
| 20260902030005 | 27 | 160 | 12.9 | 19.3 | 0.00 | 0.00 | 0.00 | 41 | 1017.7 |
| 20260902025459 | 27 | 156 | 14.5 | 20.9 | 0.00 | 0.00 | 0.00 | 40 | 1017.9 |
| 20260902024954 | 27 | 149 | 11.3 | 19.3 | 0.00 | 0.00 | 0.00 | 40 | 1017.7 |
| 20260902024449 | 27 | 153 | 12.9 | 17.7 | 0.00 | 0.00 | 0.00 | 40 | 1017.7 |
| 20260902023944 | 27 | 156 | 12.9 | 19.3 | 0.00 | 0.00 | 0.00 | 40 | 1017.8 |
| 20260902023441 | 28 | 147 | 14.5 | 19.3 | 0.00 | 0.00 | 0.00 | 40 | 1017.5 |
| 20260902022939 | 28 | 144 | 14.5 | 19.3 | 0.00 | 0.00 | 0.00 | 40 | 1017.5 |
| 20260902022435 | 28 | 154 | 11.3 | 17.7 | 0.00 | 0.00 | 0.00 | 40 | 1017.7 |
| 20260902021930 | 28 | 150 | 12.9 | 16.1 | 0.00 | 0.00 | 0.00 | 39 | 1017.6 |
| 20260902021425 | 28 | 151 | 9.7 | 17.7 | 0.00 | 0.00 | 0.00 | 39 | 1017.6 |
| 20260902020921 | 28 | 157 | 12.9 | 14.5 | 0.00 | 0.00 | 0.00 | 39 | 1017.6 |
| 20260902020417 | 28 | 153 | 14.5 | 19.3 | 0.00 | 0.00 | 0.00 | 39 | 1017.3 |
| 20260902015912 | 28 | 157 | 9.7 | 12.9 | 0.00 | 0.00 | 0.00 | 39 | 1017.3 |
| 20260902015408 | 28 | 155 | 12.9 | 14.5 | 0.00 | 0.00 | 0.00 | 39 | 1017.3 |
| 20260902014903 | 28 | 154 | 9.7 | 16.1 | 0.00 | 0.00 | 0.00 | 38 | 1017.5 |
| 20260902014400 | 28 | 166 | 6.4 | 12.9 | 0.00 | 0.00 | 0.00 | 39 | 1017.3 |
| 20260902013858 | 29 | 156 | 9.7 | 14.5 | 0.00 | 0.00 | 0.00 | 38 | 1017.3 |
| 20260902013354 | 29 | 155 | 9.7 | 12.9 | 0.00 | 0.00 | 0.00 | 38 | 1017.5 |
| 20260902012850 | 29 | 159 | 11.3 | 14.5 | 0.00 | 0.00 | 0.00 | 37 | 1017.3 |
| 20260902012345 | 30 | 153 | 9.7 | 14.5 | 0.00 | 0.00 | 0.00 | 37 | 1017.2 |
| 20260902011841 | 30 | 153 | 8.0 | 14.5 | 0.00 | 0.00 | 0.00 | 37 | 1017.2 |
| 20260902011335 | 30 | 157 | 9.7 | 14.5 | 0.00 | 0.00 | 0.00 | 36 | 1016.9 |
| 20260902010834 | 30 | 166 | 9.7 | 14.5 | 0.00 | 0.00 | 0.00 | 36 | 1017.0 |
| 20260902010329 | 30 | 166 | 11.3 | 14.5 | 0.00 | 0.00 | 0.00 | 35 | 1016.9 |
| 20260902005828 | 30 | 171 | 11.3 | 17.7 | 0.00 | 0.00 | 0.00 | 35 | 1016.9 |
| 20260902005323 | 31 | 169 | 11.3 | 20.9 | 0.00 | 0.00 | 0.00 | 34 | 1017.0 |
| 20260902004818 | 31 | 162 | 12.9 | 19.3 | 0.00 | 0.00 | 0.00 | 34 | 1017.0 |
| 20260902004314 | 31 | 174 | 14.5 | 20.9 | 0.00 | 0.00 | 0.00 | 34 | 1016.9 |
| 20260902003813 | 32 | 165 | 16.1 | 19.3 | 0.00 | 0.00 | 0.00 | 33 | 1016.9 |
| 20260902003309 | 32 | 160 | 16.1 | 20.9 | 0.00 | 0.00 | 0.00 | 33 | 1016.7 |
| 20260902002805 | 32 | 166 | 14.5 | 22.5 | 0.00 | 0.00 | 0.00 | 33 | 1016.6 |
| 20260902002259 | 32 | 169 | 14.5 | 24.1 | 0.00 | 0.00 | 0.00 | 32 | 1016.7 |
| 20260902001755 | 32 | 167 | 19.3 | 24.1 | 0.00 | 0.00 | 0.00 | 32 | 1016.8 |
| 20260902001249 | 32 | 162 | 20.9 | 25.7 | 0.00 | 0.00 | 0.00 | 31 | 1016.6 |
| 20260902000743 | 32 | 181 | 14.5 | 22.5 | 0.00 | 0.00 | 0.00 | 32 | 1016.7 |
| 20260902000238 | 33 | 189 | 19.3 | 29.0 | 0.00 | 0.00 | 0.00 | 31 | 1016.6 |
| 20260901235733 | 33 | 177 | 24.1 | 32.2 | 0.00 | 0.00 | 0.00 | 30 | 1016.6 |
| 20260901235229 | 33 | 184 | 14.5 | 25.7 | 0.00 | 0.00 | 0.00 | 30 | 1016.6 |
| 20260901234727 | 33 | 173 | 16.1 | 27.4 | 0.00 | 0.00 | 0.00 | 29 | 1016.7 |
| 20260901234222 | 33 | 202 | 20.9 | 29.0 | 0.00 | 0.00 | 0.00 | 29 | 1016.6 |
| 20260901233716 | 34 | 183 | 14.5 | 27.4 | 0.00 | 0.00 | 0.00 | 29 | 1016.5 |
| 20260901233212 | 33 | 180 | 24.1 | 29.0 | 0.00 | 0.00 | 0.00 | 28 | 1016.2 |
| 20260901232707 | 33 | 177 | 19.3 | 27.4 | 0.00 | 0.00 | 0.00 | 29 | 1016.1 |
| 20260901232202 | 34 | 205 | 22.5 | 24.1 | 0.00 | 0.00 | 0.00 | 27 | 1016.3 |
| 20260901231659 | 34 | 208 | 22.5 | 32.2 | 0.00 | 0.00 | 0.00 | 28 | 1016.3 |
| 20260901231154 | 34 | 189 | 11.3 | 17.7 | 0.00 | 0.00 | 0.00 | 28 | 1016.3 |
| 20260901230650 | 33 | 190 | 20.9 | 29.0 | 0.00 | 0.00 | 0.00 | 28 | 1016.2 |
| 20260901230150 | 33 | 193 | 25.7 | 30.6 | 0.00 | 0.00 | 0.00 | 29 | 1016.3 |
| 20260901225645 | 33 | 202 | 14.5 | 19.3 | 0.00 | 0.00 | 0.00 | 28 | 1016.3 |
| 20260901225139 | 34 | 201 | 20.9 | 32.2 | 0.00 | 0.00 | 0.00 | 28 | 1016.3 |
| 20260901224636 | 34 | 183 | 16.1 | 27.4 | 0.00 | 0.00 | 0.00 | 27 | 1016.6 |
| 20260901224132 | 33 | 207 | 19.3 | 29.0 | 0.00 | 0.00 | 0.00 | 28 | 1016.7 |
| 20260901223627 | 33 | 217 | 24.1 | 33.8 | 0.00 | 0.00 | 0.00 | 28 | 1016.3 |
| 20260901223122 | 34 | 157 | 14.5 | 24.1 | 0.00 | 0.00 | 0.00 | 27 | 1016.6 |
| 20260901222618 | 34 | 203 | 20.9 | 25.7 | 0.00 | 0.00 | 0.00 | 27 | 1016.6 |
| 20260901222114 | 35 | 203 | 19.3 | 29.0 | 0.00 | 0.00 | 0.00 | 27 | 1016.6 |
| 20260901221610 | 35 | 196 | 20.9 | 25.7 | 0.00 | 0.00 | 0.00 | 27 | 1016.8 |
| 20260901221106 | 35 | 198 | 17.7 | 25.7 | 0.00 | 0.00 | 0.00 | 27 | 1016.8 |
| 20260901220605 | 35 | 159 | 22.5 | 29.0 | 0.00 | 0.00 | 0.00 | 27 | 1016.8 |
| 20260901220104 | 34 | 204 | 17.7 | 29.0 | 0.00 | 0.00 | 0.00 | 28 | 1016.5 |
| 20260901215602 | 34 | 186 | 12.9 | 27.4 | 0.00 | 0.00 | 0.00 | 28 | 1016.8 |
| 20260901215056 | 35 | 185 | 20.9 | 35.4 | 0.00 | 0.00 | 0.00 | 28 | 1016.8 |
| 20260901214555 | 34 | 167 | 17.7 | 25.7 | 0.00 | 0.00 | 0.00 | 28 | 1017.0 |
| 20260901214049 | 35 | 176 | 16.1 | 29.0 | 0.00 | 0.00 | 0.00 | 27 | 1016.9 |
| 20260901213543 | 35 | 181 | 20.9 | 32.2 | 0.00 | 0.00 | 0.00 | 28 | 1017.1 |
| 20260901213038 | 34 | 190 | 16.1 | 16.1 | 0.00 | 0.00 | 0.00 | 28 | 1017.2 |
| 20260901212537 | 35 | 187 | 12.9 | 27.4 | 0.00 | 0.00 | 0.00 | 29 | 1017.3 |
| 20260901212034 | 33 | 174 | 14.5 | 24.1 | 0.00 | 0.00 | 0.00 | 31 | 1017.5 |
| 20260901211529 | 33 | 156 | 20.9 | 29.0 | 0.00 | 0.00 | 0.00 | 31 | 1017.5 |
| 20260901211026 | 34 | 171 | 14.5 | 25.7 | 0.00 | 0.00 | 0.00 | 31 | 1017.3 |
| 20260901210521 | 35 | 162 | 14.5 | 27.4 | 0.00 | 0.00 | 0.00 | 30 | 1017.6 |
| 20260901210017 | 33 | 163 | 19.3 | 32.2 | 0.00 | 0.00 | 0.00 | 31 | 1017.6 |
| 20260901205512 | 33 | 221 | 17.7 | 32.2 | 0.00 | 0.00 | 0.00 | 29 | 1017.8 |
| 20260901205012 | 33 | 195 | 11.3 | 19.3 | 0.00 | 0.00 | 0.00 | 31 | 1017.8 |
| 20260901204508 | 35 | 187 | 22.5 | 35.4 | 0.00 | 0.00 | 0.00 | 30 | 1017.9 |
| 20260901204003 | 34 | 212 | 22.5 | 27.4 | 0.00 | 0.00 | 0.00 | 31 | 1018.0 |
| 20260901203458 | 33 | 209 | 14.5 | 20.9 | 0.00 | 0.00 | 0.00 | 32 | 1018.0 |
| 20260901202958 | 35 | 180 | 16.1 | 29.0 | 0.00 | 0.00 | 0.00 | 30 | 1018.1 |
| 20260901202453 | 34 | 207 | 24.1 | 30.6 | 0.00 | 0.00 | 0.00 | 31 | 1018.4 |
| 20260901201943 | 34 | 190 | 17.7 | 32.2 | 0.00 | 0.00 | 0.00 | 31 | 1018.4 |
| 20260901201438 | 33 | 220 | 14.5 | 19.3 | 0.00 | 0.00 | 0.00 | 32 | 1018.5 |
| 20260901200937 | 33 | 174 | 17.7 | 19.3 | 0.00 | 0.00 | 0.00 | 31 | 1018.2 |
| 20260901200427 | 33 | 171 | 19.3 | 25.7 | 0.00 | 0.00 | 0.00 | 33 | 1018.6 |
| 20260901195926 | 33 | 170 | 17.7 | 24.1 | 0.00 | 0.00 | 0.00 | 32 | 1018.6 |
| 20260901195425 | 34 | 168 | 20.9 | 29.0 | 0.00 | 0.00 | 0.00 | 31 | 1018.7 |
| 20260901194920 | 35 | 161 | 19.3 | 30.6 | 0.00 | 0.00 | 0.00 | 31 | 1018.7 |
| 20260901194415 | 33 | 213 | 32.2 | 38.6 | 0.00 | 0.00 | 0.00 | 32 | 1018.5 |
| 20260901193911 | 33 | 186 | 12.9 | 24.1 | 0.00 | 0.00 | 0.00 | 33 | 1018.7 |
| 20260901193410 | 33 | 179 | 11.3 | 25.7 | 0.00 | 0.00 | 0.00 | 32 | 1018.8 |
| 20260901192909 | 33 | 204 | 19.3 | 24.1 | 0.00 | 0.00 | 0.00 | 33 | 1018.7 |
| 20260901192405 | 32 | 185 | 20.9 | 30.6 | 0.00 | 0.00 | 0.00 | 33 | 1019.0 |
| 20260901191901 | 33 | 160 | 14.5 | 16.1 | 0.00 | 0.00 | 0.00 | 32 | 1019.0 |
| 20260901191356 | 33 | 202 | 20.9 | 32.2 | 0.00 | 0.00 | 0.00 | 32 | 1019.2 |
| 20260901190852 | 33 | 185 | 25.7 | 30.6 | 0.00 | 0.00 | 0.00 | 32 | 1019.1 |
| 20260901190347 | 33 | 213 | 22.5 | 30.6 | 0.00 | 0.00 | 0.00 | 33 | 1019.4 |
| 20260901185845 | 33 | 186 | 27.4 | 29.0 | 0.00 | 0.00 | 0.00 | 33 | 1019.2 |
| 20260901185344 | 32 | 180 | 22.5 | 27.4 | 0.00 | 0.00 | 0.00 | 33 | 1019.2 |